Weather Roundup
Issued by NWS

Home | Current Version | Previous Version | Text Only | Print | Product List | Glossary On
Versions: 1 2 3 4 5 6 7 8 9 10 11 12 13 14 15 16 17 18 19 20 21 22 23 24 25 26 27 28 29 30 31 32 33 34 35 36 37 38 39 40 41 42 43 44 45 46 47 48 49 50
000
NZUS93 KARX 191210
HRRWXR

CURRENT HOURLY OBSERVATIONS ACROSS
MUCH OF THE UPPER MISSISSIPPI VALLEY
NATIONAL WEATHER SERVICE LA CROSSE WI
700 AM CDT FRI SEP 19 2014


...SOUTHEAST MINNESOTA...


CITY           SKY/WX    TMP DP  RH WIND       PRES   REMARKS
ROCHESTER      MOCLDY    54  48  80 S14       30.02R
ROCHESTER/MAYO PTSUNNY   55  47  73 SE9       30.01R
WINONA         CLEAR     55  50  82 SE5       30.04R
AUSTIN         CLEAR     54  48  82 S9        30.00S
ALBERT LEA     CLEAR     54  50  87 S12       29.98S
DODGE CENTER   PTCLDY    55  50  82 S17       29.98F
PRESTON        CLEAR     51  51 100 S8        30.04R
OWATONNA       CLEAR     55  48  76 S14       29.96F
FARIBAULT      PTCLDY    61  48  63 S12       29.96F
$$

...ELSEWHERE IN MINNESOTA...


CITY           SKY/WX    TMP DP  RH WIND       PRES   REMARKS
MINNEAPOLIS    CLOUDY    57  51  80 SE8       29.93F
INTNL FALLS    CLOUDY    60  52  74 S13G21    29.69S
DULUTH         CLOUDY    55  51  86 S12       29.88F
RED WING       PTCLDY    57  50  77 SE6       29.98F
REDWOOD FALLS  CLOUDY    62  57  83 S16       29.86F
MANKATO        CLOUDY    57  50  77 S12G18    29.92F
WORTHINGTON    CLOUDY    61  57  88 S14G23    29.89F
FAIRMONT       MOCLDY    57  48  72 S13G21    29.91F
$$

...SOUTHWEST WISCONSIN...


CITY           SKY/WX    TMP DP  RH WIND       PRES   REMARKS
LA CROSSE      CLEAR     56  51  84 SE10      30.04S
PRAIRIE DU CHI CLEAR     51  49  93 E5        30.08R FOG
BOSCOBEL       MOCLDY    51  48  89 CALM      30.10R FOG
LONE ROCK      PTCLDY    52  47  83 E7        30.10F HAZE
PLATTEVILLE    PTCLDY    49  49  97 CALM      30.11S
FORT MC COY    CLEAR     54  49  82 S12       30.07S
CAMP DOUGLAS   PTCLDY    46  46 100 SE8       30.09S FOG
VIROQUA        FAIR      51  51 100 S9        30.07S
WIS DELLS      CLOUDY    50  49  95 S6        30.11S FOG
$$

...ELSEWHERE IN WISCONSIN...


CITY           SKY/WX    TMP DP  RH WIND       PRES   REMARKS
MILWAUKEE      PTCLDY    57  53  86 S8        30.15S
MADISON        MOCLDY    56  53  90 S8        30.12S FOG
GREEN BAY      CLOUDY    52  52 100 S5        30.14R FOG
EAU CLAIRE     CLEAR     54  51  90 S9        30.02R
BLACK RVR FLS  FAIR      42  42 100 CALM      30.06R FOG
MEDFORD        MOCLDY    48  48  97 S7        30.07R FOG
WAUSAU         CLOUDY    50  49  96 S6        30.09R FOG
WIS RAPIDS     CLOUDY    50  49  96 S5        30.11S FOG
MARSHFIELD     CLOUDY    51  50  96 S9        30.08R FOG
RICE LAKE      MOCLDY    51  50  94 SE7       30.02R FOG
$$

...NORTHEAST IOWA...


CITY           SKY/WX    TMP DP  RH WIND       PRES   REMARKS
WATERLOO       CLEAR     53  48  83 SE10      30.04R
DUBUQUE        FOG       51  51 100 S7        30.10S VSB 3/4
DECORAH        CLEAR     52  50  93 S8        30.04S FOG
MASON CITY     CLEAR     51  50  96 SE9       30.02R
CHARLES CITY   CLEAR     52  48  87 S7        30.04R
OELWEIN        CLEAR     52  50  93 SE9       30.06S FOG
$$

...ELSEWHERE IN IOWA...


CITY           SKY/WX    TMP DP  RH WIND       PRES   REMARKS
DES MOINES     PTCLDY    56  53  90 S7        30.02R
IOWA CITY      CLEAR     50  49  96 VRB3      30.09F
FORT DODGE     PTCLDY    57  54  88 S6        29.99S
MARSHALLTOWN   CLEAR     51  49  92 SE9       30.03R
CEDAR RAPIDS   CLEAR     51  49  92 SE6       30.07S
$$

...NORTHERN ILLINOIS...


CITY           SKY/WX    TMP DP  RH WIND       PRES   REMARKS
CHICAGO-OHARE  PTCLDY    54  49  83 S8        30.15F
DUPAGE         CLEAR     52  49  89 SE7       30.15S
CHICAGO-MIDWAY PTCLDY    57  51  80 S7        30.16S
MOLINE         CLEAR     50  48  93 NE5       30.11R FOG
ROCKFORD       MOCLDY    54  51  90 SE6       30.15F FOG
STERLING       CLOUDY    46  45  93 CALM      30.12S VSB<1/4
PEORIA         CLEAR     52  48  86 CALM      30.13R
$$

NOTE: "FAIR" INDICATES FEW OR NO CLOUDS BELOW 12,000 FEET WITH NO
SIGNIFICANT WEATHER AND/OR OBSTRUCTIONS TO VISIBILITY. WIND
SPEEDS ARE IN MILES-PER-HOUR.



USA.gov is the U.S. government's official web portal to all federal, state and local government web resources and services.